{"data":{"norad_id":56079,"epoch":"2026-09-20T04:43:23.532096Z","epoch_age_seconds":44326,"freshness":"FRESH","line1":"1 56079U 23043AK  26263.19680014 -.00000096  00000+0 -29037-3 0  9997","line2":"2 56079  87.8985 240.2804 0002197  83.2003 276.9377 13.15547839168911","mean_motion":13.15547839,"eccentricity":0.0002197,"inclination_deg":87.8985,"raan_deg":240.2804,"arg_perigee_deg":83.2003,"mean_anomaly_deg":276.9377,"bstar":-0.00029037,"rev_number":16891,"period_min":109.46010151137,"perigee_km":1200.1081922123,"apogee_km":1203.4388048853,"semimajor_km":7579.9104985488,"source":"CELESTRAK","updated_at":"2026-09-20T09:00:44.793473Z"}}